Location: Skalnate Pleso
(49.1889°N, 20.2450°E)
Time: 04:30:43
(UTC+01:00)

SKYMED 2 - Pass Details

Date: 19 November 2019
Orbit: 621 x 623 km, 97.9° (Epoch: 13 December)

Event Time Altitude Azimuth Distance (km) Brightness Sun altitude
Rises 04:23:24 0° 154° (SSE) 2,893 7.4 -24.4°
Reaches altitude 10° 04:25:36 10° 151° (SSE) 1,991 6.5 -24.0°
Maximum altitude 04:29:52 60° 72° (ENE) 718 4.0 -23.3°
Enters shadow 04:33:31 14° 355° (N) 1,750 5.8 -22.7°
